TimeCST,TemperatureF,Dew PointF,Humidity,Sea Level PressureIn,VisibilityMPH,Wind Direction,Wind SpeedMPH,Gust SpeedMPH,PrecipitationIn,Events,Conditions,WindDirDegrees,DateUTC
12:15 AM,32.0,26.4,80,30.21,10.0,NW,5.8,-,N/A,,Clear,320,2012-12-29 06:15:00
12:35 AM,31.6,25.9,79,30.21,10.0,NW,4.6,-,N/A,,Clear,310,2012-12-29 06:35:00
12:55 AM,31.3,25.7,80,30.20,10.0,NW,4.6,-,N/A,,Clear,310,2012-12-29 06:55:00
1:15 AM,30.9,25.3,80,30.22,10.0,WNW,3.5,-,N/A,,Clear,300,2012-12-29 07:15:00
1:35 AM,30.6,24.8,79,30.23,10.0,NW,4.6,-,N/A,,Clear,310,2012-12-29 07:35:00
1:55 AM,30.2,24.4,79,30.24,10.0,WNW,3.5,-,N/A,,Clear,300,2012-12-29 07:55:00
2:15 AM,30.0,24.1,79,30.24,10.0,NW,4.6,-,N/A,,Clear,310,2012-12-29 08:15:00
2:35 AM,30.0,23.5,77,30.24,10.0,NW,4.6,-,N/A,,Clear,310,2012-12-29 08:35:00
2:55 AM,29.8,23.0,76,30.25,10.0,NW,4.6,-,N/A,,Clear,310,2012-12-29 08:55:00
3:15 AM,29.5,22.8,76,30.26,10.0,NW,4.6,-,N/A,,Clear,310,2012-12-29 09:15:00
3:35 AM,29.3,22.6,76,30.27,10.0,Calm,Calm,-,N/A,,Clear,0,2012-12-29 09:35:00
3:55 AM,29.1,22.6,77,30.27,10.0,Calm,Calm,-,N/A,,Clear,0,2012-12-29 09:55:00
4:15 AM,28.6,22.5,78,30.28,10.0,WNW,3.5,-,N/A,,Clear,290,2012-12-29 10:15:00
4:35 AM,28.9,22.3,76,30.28,10.0,NW,3.5,-,N/A,,Clear,320,2012-12-29 10:35:00
4:55 AM,28.6,22.1,77,30.29,10.0,NW,3.5,-,N/A,,Clear,320,2012-12-29 10:55:00
5:15 AM,28.9,21.6,74,30.29,10.0,NW,4.6,-,N/A,,Clear,320,2012-12-29 11:15:00
5:35 AM,29.3,21.2,72,30.32,10.0,NW,4.6,-,N/A,,Clear,320,2012-12-29 11:35:00
5:55 AM,29.3,21.2,72,30.32,10.0,NW,6.9,-,N/A,,Clear,320,2012-12-29 11:55:00
6:15 AM,29.1,21.0,72,30.33,10.0,NNW,6.9,-,N/A,,Clear,330,2012-12-29 12:15:00
6:35 AM,28.9,21.0,72,30.33,10.0,NNW,5.8,-,N/A,,Clear,330,2012-12-29 12:35:00
6:55 AM,28.9,20.7,71,30.34,10.0,NNW,6.9,-,N/A,,Clear,340,2012-12-29 12:55:00
7:15 AM,28.4,20.5,72,30.34,10.0,NNW,5.8,-,N/A,,Clear,340,2012-12-29 13:15:00
7:35 AM,28.2,20.3,72,30.36,10.0,NNW,6.9,-,N/A,,Clear,330,2012-12-29 13:35:00
7:55 AM,28.2,20.3,72,30.37,10.0,NNW,5.8,-,N/A,,Clear,330,2012-12-29 13:55:00
8:15 AM,28.4,19.9,71,30.37,10.0,NNW,5.8,-,N/A,,Clear,340,2012-12-29 14:15:00
8:35 AM,29.3,19.2,66,30.37,10.0,North,6.9,-,N/A,,Clear,350,2012-12-29 14:35:00
8:55 AM,29.8,18.5,63,30.39,10.0,North,8.1,-,N/A,,Clear,350,2012-12-29 14:55:00
9:15 AM,30.9,18.0,59,30.40,10.0,NNW,8.1,-,N/A,,Clear,340,2012-12-29 15:15:00
9:35 AM,32.0,17.6,55,30.41,10.0,North,9.2,-,N/A,,Clear,350,2012-12-29 15:35:00
9:55 AM,32.9,16.5,51,30.42,10.0,North,8.1,-,N/A,,Clear,350,2012-12-29 15:55:00
10:15 AM,34.2,16.2,48,30.42,10.0,North,6.9,-,N/A,,Clear,350,2012-12-29 16:15:00
10:35 AM,35.1,15.8,45,30.43,10.0,North,12.7,-,N/A,,Clear,10,2012-12-29 16:35:00
10:55 AM,36.1,16.3,45,30.43,10.0,North,8.1,-,N/A,,Clear,350,2012-12-29 16:55:00
11:15 AM,36.9,16.5,44,30.43,10.0,North,10.4,-,N/A,,Clear,10,2012-12-29 17:15:00
11:35 AM,37.9,17.4,43,30.42,10.0,NNW,8.1,16.1,N/A,,Clear,340,2012-12-29 17:35:00
11:55 AM,39.0,18.0,43,30.41,10.0,NNW,4.6,-,N/A,,Clear,340,2012-12-29 17:55:00
12:15 PM,39.7,18.0,42,30.41,10.0,NNW,8.1,-,N/A,,Clear,330,2012-12-29 18:15:00
12:35 PM,40.5,18.7,42,30.40,10.0,NNW,6.9,-,N/A,,Clear,330,2012-12-29 18:35:00
12:55 PM,41.2,18.5,40,30.39,10.0,NNW,8.1,-,N/A,,Clear,340,2012-12-29 18:55:00
1:15 PM,41.7,18.1,39,30.39,10.0,North,10.4,-,N/A,,Clear,350,2012-12-29 19:15:00
1:35 PM,42.4,18.5,38,30.38,10.0,North,8.1,-,N/A,,Clear,350,2012-12-29 19:35:00
1:55 PM,42.8,19.0,39,30.38,10.0,North,9.2,-,N/A,,Clear,360,2012-12-29 19:55:00
2:15 PM,43.2,18.9,38,30.37,10.0,North,5.8,-,N/A,,Clear,350,2012-12-29 20:15:00
2:35 PM,43.5,19.6,38,30.37,10.0,NNW,3.5,-,N/A,,Clear,330,2012-12-29 20:35:00
2:55 PM,43.7,19.2,38,30.38,10.0,NNW,8.1,-,N/A,,Clear,330,2012-12-29 20:55:00
3:15 PM,43.9,19.4,38,30.38,10.0,NNW,5.8,-,N/A,,Clear,340,2012-12-29 21:15:00
3:35 PM,44.2,20.1,38,30.38,10.0,North,6.9,-,N/A,,Clear,360,2012-12-29 21:35:00
3:55 PM,44.2,20.1,38,30.39,10.0,North,4.6,-,N/A,,Clear,360,2012-12-29 21:55:00
4:15 PM,45.0,20.5,38,30.39,10.0,North,5.8,-,N/A,,Clear,350,2012-12-29 22:15:00
4:35 PM,44.6,20.1,38,30.39,10.0,North,4.6,-,N/A,,Clear,350,2012-12-29 22:35:00
4:55 PM,43.7,20.5,40,30.39,10.0,North,6.9,-,N/A,,Clear,360,2012-12-29 22:55:00
5:15 PM,42.6,20.7,42,30.39,10.0,Calm,Calm,-,N/A,,Clear,0,2012-12-29 23:15:00
5:35 PM,40.6,21.6,47,30.39,10.0,Calm,Calm,-,N/A,,Clear,0,2012-12-29 23:35:00
5:55 PM,39.6,22.1,50,30.41,10.0,Calm,Calm,-,N/A,,Clear,0,2012-12-29 23:55:00
6:15 PM,38.1,23.5,56,30.41,10.0,Calm,Calm,-,N/A,,Clear,0,2012-12-30 00:15:00
6:35 PM,35.8,23.5,61,30.42,10.0,Calm,Calm,-,N/A,,Clear,0,2012-12-30 00:35:00
6:55 PM,34.9,22.5,61,30.43,10.0,Calm,Calm,-,N/A,,Clear,0,2012-12-30 00:55:00
7:35 PM,32.4,25.0,74,30.42,10.0,Calm,Calm,-,N/A,,Clear,0,2012-12-30 01:35:00
7:55 PM,31.5,24.6,76,30.43,10.0,Calm,Calm,-,N/A,,Clear,0,2012-12-30 01:55:00
8:15 PM,30.4,24.1,77,30.43,10.0,Calm,Calm,-,N/A,,Clear,0,2012-12-30 02:15:00
8:35 PM,29.7,24.4,81,30.43,10.0,Calm,Calm,-,N/A,,Clear,0,2012-12-30 02:35:00
8:55 PM,28.8,23.5,81,30.44,10.0,Calm,Calm,-,N/A,,Clear,0,2012-12-30 02:55:00
9:15 PM,29.1,24.4,83,30.44,10.0,Calm,Calm,-,N/A,,Clear,0,2012-12-30 03:15:00
9:35 PM,28.4,24.8,86,30.45,10.0,Calm,Calm,-,N/A,,Clear,0,2012-12-30 03:35:00
9:55 PM,27.9,24.6,88,30.45,10.0,Calm,Calm,-,N/A,,Clear,0,2012-12-30 03:55:00
10:15 PM,27.3,24.3,88,30.45,10.0,Calm,Calm,-,N/A,,Clear,0,2012-12-30 04:15:00
10:35 PM,27.0,23.9,88,30.45,10.0,Calm,Calm,-,N/A,,Clear,0,2012-12-30 04:35:00
10:55 PM,26.1,23.5,90,30.45,10.0,Calm,Calm,-,N/A,,Clear,0,2012-12-30 04:55:00
11:15 PM,25.7,23.4,91,30.45,10.0,Calm,Calm,-,N/A,,Clear,0,2012-12-30 05:15:00
11:35 PM,26.4,23.4,88,30.45,10.0,Calm,Calm,-,N/A,,Clear,0,2012-12-30 05:35:00
11:55 PM,26.2,23.9,91,30.45,10.0,Calm,Calm,-,N/A,,Clear,0,2012-12-30 05:55:00